User: anonymous   Login
Location: Freistadt
(48.5112°N, 14.5013°E)
Time: 21:15:48
(UTC+02:00)
Language:

NOAA 16 DEB - Orbit

View from above orbital plane
View from above orbital plane
View from above satellite
View from above satellite

Ground track
Ground track

The orbit data is extracted from the following two-line orbital elements,

1 41661U 00055PA  24147.36883621  .00006520  00000-0  25687-2 0  9996
2 41661  99.0216 298.3187 0024405 291.1090  68.7482 14.29333300419649
Epoch (UTC): 26 May 2024 08:51:07
Eccentricity: 0.0024405
inclination: 99.0216°
perigee height: 776 km
apogee height: 811 km
right ascension of ascending node: 298.3187°
argument of perigee: 291.1090°
revolutions per day: 14.29333300
mean anomaly at epoch: 68.7482°
orbit number at epoch: 41964

The dashed part of the orbit path shows where the satellite is in the earth's shadow,  

DLR